Fairbanks Ft. Wainwright, AK

7:58 PM AKDT on April 26, 2018 (GMT -0800)
Ladd Army Air Field

Weather History for PAFB - May, 2014

Change the Weather History Date:

Friday, May 30, 2014

  Actual Average Record
Temperature  
Mean Temperature 62 °F -  
Max Temperature 73 °F 63 °F 82 °F (2013)
Min Temperature 50 °F 45 °F 37 °F (2008)
Degree Days  
Heating Degree Days 4    
Growing Degree Days 12 (Base 50)    
Moisture  
Dew Point 37 °F    
Average Humidity 44    
Maximum Humidity 71    
Minimum Humidity 25    
Precipitation  
Precipitation 0.00 in - - ()
Sea Level Pressure  
Sea Level Pressure 29.64 in    
Wind  
Wind Speed 5 mph (ESE)    
Max Wind Speed 13 mph    
Max Gust Speed 16 mph    
Visibility 10 miles    
Events      
Averages and records for this station are not official NWS values.
T = Trace of Precipitation, MM = Missing Value Source: NWS Daily Summary

Daily Weather History Graph

Daily Weather History Graph

Search for Another Location

Airport or City:

Astronomy

May. 30, 2014 Rise Set
Actual Time 3:37 AM AKDT 12:01 AM AKDT
Civil Twilight Sun does not set Sun does not set
Nautical Twilight Sun does not set Sun does not set
Astronomical Twilight Sun does not set Sun does not set
Moon 6:13 AM AKDT (5/30) 12:13 AM AKDT (5/30)
Length of Visible Light 24h 00m
Length of Day
20h 23m
Waxing Crescent, 4% of the Moon is Illuminated
May 30
Waxing Crescent
Jun 5
First Quarter
Jun 12
Full
Jun 19
Last Quarter
Jun 27
New

Hourly Weather History & Observations

Time (AKDT) Temp. Dew Point Humidity Pressure Visibility Wind Dir Wind Speed Gust Speed Precip Events Conditions
12:56 AM 60.1 °F 37.9 °F 44% 29.72 in 10.0 mi North - - N/A   Mostly Cloudy
1:56 AM 54.0 °F 39.0 °F 57% 29.72 in 10.0 mi North - - N/A   Partly Cloudy
2:56 AM 50.0 °F 39.0 °F 66% 29.73 in 10.0 mi North - - N/A   Mostly Cloudy
3:56 AM 53.1 °F 39.0 °F 59% 29.74 in 10.0 mi North - - N/A   Overcast
4:56 AM 50.0 °F 39.0 °F 66% 29.74 in 10.0 mi North - - N/A   Clear
5:56 AM 50.0 °F 39.0 °F 66% 29.75 in 10.0 mi North - - N/A   Clear
6:25 AM 50.0 °F 39.2 °F 66% 29.74 in 25.0 mi Variable 2.3 mph - N/A   Overcast
6:55 AM 50.0 °F 41.0 °F 71% 29.75 in 25.0 mi Variable 2.3 mph - N/A   Overcast
7:55 AM 51.8 °F 39.2 °F 62% 29.74 in 25.0 mi East 3.5 mph - N/A   Overcast
8:55 AM 51.8 °F 39.2 °F 62% 29.73 in 25.0 mi Variable 1.2 mph - N/A   Overcast
9:55 AM 62.6 °F 37.4 °F 39% 29.71 in 25.0 mi Variable 5.8 mph - N/A   Overcast
10:55 AM 64.4 °F 37.4 °F 37% 29.70 in 25.0 mi ENE 6.9 mph - N/A   Overcast
11:55 AM 66.2 °F 35.6 °F 32% 29.68 in 25.0 mi East 12.7 mph - N/A   Overcast
12:55 PM 68.0 °F 35.6 °F 30% 29.65 in 13.0 mi ENE 8.1 mph - N/A   Overcast
1:55 PM 69.8 °F 35.6 °F 28% 29.63 in 25.0 mi East 10.4 mph - N/A   Overcast
2:55 PM 69.8 °F 35.6 °F 28% 29.60 in 25.0 mi East 9.2 mph - N/A   Overcast
3:55 PM 69.8 °F 35.6 °F 28% 29.59 in 25.0 mi SSE 9.2 mph - N/A   Overcast
4:55 PM 71.6 °F 35.6 °F 27% 29.57 in 25.0 mi SE 10.4 mph - N/A   Mostly Cloudy
5:55 PM 71.6 °F 35.6 °F 27% 29.55 in 25.0 mi SE 5.8 mph - N/A   Mostly Cloudy
6:55 PM 73.4 °F 35.6 °F 25% 29.52 in 25.0 mi ESE 8.1 mph 16.1 mph N/A   Mostly Cloudy
7:56 PM 71.1 °F 34.0 °F 26% 29.51 in 10.0 mi North - - N/A   Mostly Cloudy
8:56 PM 69.1 °F 35.1 °F 29% 29.51 in 10.0 mi North - - N/A   Mostly Cloudy
9:56 PM 66.0 °F 37.0 °F 34% 29.50 in 10.0 mi North - - N/A   Overcast
10:56 PM 63.0 °F 37.9 °F 40% 29.49 in 10.0 mi North - - N/A   Mostly Cloudy
11:56 PM 61.0 °F 37.9 °F 42% 29.49 in 10.0 mi North - - N/A   Partly Cloudy